Location: Arpaise
(41.0333°N, 14.7333°E)
Time: 07:22:36
(UTC+00:00)

Cosmos 1606 - Pass Details

Date: 05 July 2020
Orbit: 505 x 527 km, 82.5° (Epoch: 06 August)

Event Time Altitude Azimuth Distance (km) Brightness Sun altitude
Rises 22:47:14 0° 347° (NNW) 2,662 7.6 -26.2°
Reaches altitude 10° 22:49:24 10° 343° (NNW) 1,771 6.4 -26.2°
Enters shadow 22:52:09 40° 319° (NW) 785 3.9 -26.2°
